sat.trackr.live / text

‹ back to catalog

KANOPUS-V-IK

NORAD 42825 · 2017-042A

PAYLOAD ACTIVE UNKNOWN

§ Identity

Operator
Country
CIS
Launch date
2017-07-14
Launch site
TYMSC
Launch vehicle
Mass (kg)
RCS (m²)

External: N2YO · Heavens-Above · Gunter

§ Orbital elements

Epoch: 2026-09-20T04:26:51.332640Z

Period
94.59 min
Inclination
97.3468°
Eccentricity
0.0001872
Mean motion
15.22432075 rev/d
Perigee alt
497.2 km
Apogee alt
499.8 km
Semi-major
6,876.6 km
B*
6.3955e-5
RAAN
166.6846°
Arg perigee
87.3036°
Mean anomaly
272.8414°
Rev number
50,982

§ Raw data

KANOPUS-V-IK1 42825U 17042A   26263.18531635  .00001410  00000+0  63955-4 0  99932 42825  97.3468 166.6846 0001872  87.3036 272.8414 15.22432075509825

JSON: /api/v1/satellites/42825 · /tle

For live sub-satellite position, see the globe view (requires WebGL).

§ Visibility from observer

Set your observer location to see the next 7 days of passes ≥ 10°. The values pass through the URL so the page stays shareable.

No JS? Fill the form by hand. The geolocation button needs JavaScript.